Theta_e
329 321 314 309 300 297 292 295 300 302 303 309 312 311 308 310 308 301 325 333 336 338 342 345 347 349 348 347 343 344 345 341 340 343 341 340 339 338 337 338 340 337 337 337 338 336 336 335 338
323 320 313 303 296 291 292 297 300 303 308 315 313 312 311 306 318 320 324 334 338 340 342 343 344 348 347 346 343 344 344 342 342 344 342 339 339 337 336 336 336 336 336 336 337 335 336 335 337
320 315 308 297 292 291 293 300 303 307 312 309 309 312 310 310 318 323 327 336 338 338 342 343 344 347 346 345 344 344 344 343 342 344 342 338 338 336 335 335 335 335 335 336 336 335 336 335 335
314 312 306 295 292 295 298 300 306 306 308 310 311 306 312 321 322 327 334 336 335 336 340 341 345 346 345 344 344 342 343 343 342 342 342 340 338 336 335 334 335 334 335 335 335 336 335 336 335
310 306 299 296 295 297 300 304 306 305 305 308 310 306 308 321 326 331 332 335 333 334 338 341 343 345 345 343 342 342 341 341 339 341 342 341 338 337 335 333 334 334 334 334 335 335 334 334 334
300 302 295 293 297 301 301 306 305 304 306 307 308 309 310 320 326 328 332 331 334 334 337 340 337 340 342 342 342 341 341 340 339 339 341 343 340 337 336 335 334 334 333 334 334 334 333 332 332
302 297 294 294 297 299 300 304 304 303 304 305 312 305 310 315 323 329 330 331 332 334 335 336 338 336 335 338 338 339 340 339 338 338 340 340 339 338 337 336 335 333 332 333 333 332 331 330 330
304 299 293 293 295 296 301 302 304 304 304 309 314 303 303 316 323 327 329 329 329 331 333 334 334 335 334 334 332 334 335 335 335 333 332 331 333 334 333 331 334 334 333 333 332 331 330 328 326
306 294 290 294 297 300 305 301 304 306 307 310 314 311 315 322 322 322 321 326 329 331 330 332 333 332 333 332 330 329 330 331 330 328 325 324 325 326 327 327 331 334 334 332 331 331 330 329 325
301 292 292 297 301 301 304 303 305 304 305 306 310 316 320 321 319 319 319 323 325 326 329 330 332 331 331 334 330 328 328 327 325 324 323 323 322 323 324 322 327 331 330 332 332 331 330 323 315
301 295 298 301 303 304 304 303 307 301 299 304 307 310 317 316 318 317 318 322 324 325 325 328 329 330 330 331 328 326 326 324 323 322 322 322 322 320 322 322 325 322 321 322 324 322 319 316 315
298 304 302 304 305 303 301 305 304 304 303 307 308 310 318 318 318 319 318 318 320 321 324 326 328 329 330 333 331 326 325 323 322 321 321 319 318 317 318 318 320 319 318 317 316 316 316 316 315
297 300 304 305 303 302 303 301 301 303 308 308 314 316 318 318 318 319 320 320 320 320 322 324 326 328 331 333 332 331 327 325 323 321 320 319 316 316 316 317 317 316 316 315 313 313 313 313 313
295 298 298 300 302 302 301 300 301 303 305 308 312 313 316 317 319 315 320 320 320 321 321 322 326 328 329 331 331 330 330 327 324 323 322 320 318 316 315 316 316 315 315 314 314 313 312 312 313
298 293 295 297 300 299 301 297 297 304 305 305 306 309 314 317 318 319 321 321 323 323 322 320 322 327 328 330 331 330 330 329 326 325 324 322 321 318 317 315 315 316 314 314 313 312 312 312 313
293 291 285 292 299 300 299 289 296 301 302 302 302 302 304 308 315 318 321 322 323 323 323 323 323 323 327 329 329 330 329 328 328 326 325 324 323 321 319 318 317 316 314 313 312 312 310 310 310
288 280 285 289 297 297 297 291 296 299 299 299 298 299 300 302 303 305 313 320 322 323 324 323 323 320 323 327 328 327 326 326 326 325 325 324 324 323 322 320 320 317 315 314 313 312 311 309 309
284 284 287 284 289 295 293 293 298 297 296 296 297 298 299 300 302 304 305 311 320 321 322 323 323 322 320 324 325 324 324 325 325 324 324 324 325 324 323 323 321 318 317 315 312 313 310 310 310
288 287 285 287 293 292 291 292 295 297 294 295 295 295 297 299 303 303 304 305 307 316 319 322 322 322 320 318 320 322 321 322 322 323 324 323 324 324 324 324 321 318 318 318 315 313 312 310 308
288 286 284 289 292 292 289 289 293 294 294 295 296 295 296 298 300 303 303 303 304 310 317 319 321 321 320 321 321 322 320 322 323 323 322 323 323 323 324 323 322 320 320 318 316 315 312 311 310
291 287 285 285 290 290 288 287 287 291 293 294 295 297 297 297 299 301 302 303 302 304 310 317 320 320 320 320 320 315 314 314 316 321 321 320 322 323 323 323 323 321 320 319 317 316 315 314 309
287 293 289 289 286 280 287 277 281 284 288 293 294 295 296 298 299 300 301 302 302 302 304 310 317 320 319 318 318 316 316 315 317 319 319 320 319 321 322 322 322 322 320 320 319 317 317 315 313
288 294 293 290 287 284 282 280 281 286 285 289 293 294 295 298 298 299 300 301 302 302 301 304 311 316 319 316 318 317 315 318 318 316 315 316 318 319 320 321 321 321 321 320 320 318 314 316 315
294 290 290 289 287 281 283 281 281 283 287 290 293 295 296 296 297 298 299 299 299 299 300 301 305 311 317 316 315 316 315 315 316 315 314 316 316 317 317 319 320 320 320 320 320 318 317 315 315
291 286 274 278 279 276 282 281 284 285 288 292 293 294 295 294 295 295 296 296 299 299 299 303 305 309 313 316 314 315 316 316 315 315 315 315 314 315 316 317 318 319 319 319 320 318 317 316 315
291 288 277 270 273 277 283 279 284 290 293 296 297 298 295 294 295 295 296 296 295 296 296 297 299 300 305 312 316 315 315 317 317 317 318 318 316 317 317 318 318 318 319 319 318 318 317 317 316
290 286 288 279 274 273 279 282 289 291 290 292 292 292 293 293 293 292 293 293 294 295 295 296 297 298 299 300 303 311 316 315 316 317 318 319 319 319 317 317 317 317 318 318 318 317 316 317 316
291 292 284 283 273 271 277 278 281 285 288 289 290 290 290 290 291 292 292 293 293 294 294 295 295 296 296 297 298 300 302 307 314 317 317 318 319 320 319 317 317 317 317 318 317 318 317 317 317
288 287 287 286 283 276 272 278 285 288 289 290 290 290 290 290 290 291 291 292 292 292 292 292 293 294 294 295 296 297 298 300 302 307 312 316 319 320 320 319 318 317 317 317 317 316 317 316 316
292 288 288 281 276 282 278 279 287 288 289 291 289 290 289 291 291 291 291 291 292 291 291 291 292 292 293 293 294 295 296 297 297 299 301 304 308 314 320 321 320 319 319 318 317 316 316 316 315
Wind_Speed
10 9 2 6 6 6 2 3 1 1 1 2 2 3 3 2 2 3 3 5 8 8 4 5 11 16 15 13 12 11 12 12 11 13 14 13 12 12 13 13 13 12 14 13 14 14 13 10 13
9 5 5 3 7 4 4 3 3 2 3 4 4 2 4 1 0 1 4 4 5 10 7 5 9 13 14 14 13 11 11 12 10 15 16 13 13 11 12 12 11 13 12 13 13 13 11 12 12
6 4 5 5 4 3 4 4 4 1 5 0 2 2 2 1 1 5 1 8 5 5 7 9 9 11 10 12 12 11 11 12 10 11 16 12 12 11 11 10 11 11 11 12 12 12 10 9 12
6 6 5 6 2 1 2 3 3 3 1 1 2 2 0 1 3 5 8 8 7 4 5 9 14 10 9 8 10 10 11 11 9 11 11 15 13 11 10 10 9 10 10 10 10 11 9 10 10
5 4 5 4 2 3 2 2 5 1 2 2 2 2 1 2 3 7 9 8 8 5 4 5 9 13 10 8 7 9 10 10 6 6 10 16 15 11 10 10 9 8 9 9 9 9 8 8 8
6 3 5 1 3 4 1 3 3 1 1 2 2 5 3 1 5 6 6 7 6 7 5 5 7 8 10 11 7 5 7 8 7 6 12 14 16 12 10 10 10 9 8 8 8 8 7 6 7
5 4 4 3 2 3 1 1 2 2 1 3 5 2 2 2 5 6 6 6 5 5 6 4 6 5 7 8 11 7 6 5 6 6 12 13 13 14 11 8 8 9 9 7 7 6 5 5 5
5 4 4 3 3 1 3 1 2 4 3 2 1 2 1 3 8 7 6 5 4 4 5 5 4 6 4 4 7 11 8 6 3 2 2 8 11 12 11 8 7 8 8 7 6 5 4 3 3
3 4 1 4 5 3 2 2 3 0 4 1 2 1 1 3 8 6 4 3 3 3 4 4 5 5 5 5 4 5 9 9 5 3 4 6 3 4 8 7 8 7 7 7 6 5 4 2 1
5 3 8 3 2 0 2 1 2 2 2 1 2 1 3 6 6 7 6 10 9 9 7 6 5 6 5 3 5 4 3 3 5 5 3 3 3 1 2 3 7 8 7 6 6 6 4 1 0
4 6 4 3 2 2 4 4 2 5 3 5 3 2 4 4 6 8 7 7 11 7 4 7 6 5 6 4 3 2 2 3 2 6 5 5 3 2 2 1 2 1 2 1 2 2 1 2 2
4 6 5 2 2 3 3 4 5 3 4 5 3 2 5 7 9 8 8 7 6 6 8 6 6 6 6 4 5 4 4 3 3 4 6 4 3 4 4 3 4 3 2 3 3 2 3 4 4
4 4 4 5 4 4 3 6 6 5 7 1 3 4 7 7 8 4 5 5 6 7 8 8 7 8 9 9 7 6 5 5 5 4 4 3 4 5 4 4 3 4 3 4 4 4 4 5 5
2 4 1 3 4 4 4 5 5 6 2 6 3 6 7 8 9 3 7 8 9 8 9 7 8 8 7 10 10 7 6 6 5 5 6 6 4 4 4 4 4 4 4 4 4 5 4 4 4
1 1 3 4 4 5 4 9 10 8 4 6 7 6 6 10 5 11 10 10 9 10 8 9 10 9 10 11 12 10 8 8 7 7 8 8 7 7 6 4 4 5 4 5 4 4 3 4 3
2 2 1 3 9 6 9 12 4 6 6 11 8 8 7 8 8 9 11 11 8 8 11 9 9 10 11 11 9 8 8 8 8 7 7 10 9 8 6 5 6 5 4 4 4 4 4 4 4
2 4 6 5 9 5 9 8 4 6 9 9 8 8 6 8 9 11 13 11 10 11 11 10 10 12 13 12 8 8 8 8 8 7 7 10 11 10 8 7 6 5 5 5 4 4 4 4 4
7 5 6 6 2 5 6 9 11 5 0 6 8 9 8 8 13 11 10 8 9 9 9 9 9 12 12 9 7 5 6 7 7 7 8 9 8 11 10 9 8 6 5 5 4 7 4 5 4
6 5 7 2 3 3 8 9 20 10 5 9 10 8 10 11 12 9 8 9 8 7 8 11 8 11 7 6 6 7 10 8 7 8 10 10 10 11 11 9 8 7 9 10 8 5 7 5 3
3 5 5 4 3 2 5 12 13 10 9 10 11 10 12 8 10 13 9 9 8 8 9 8 11 10 10 9 8 7 5 9 9 8 11 13 12 12 11 11 9 10 8 9 9 9 4 4 5
15 11 4 1 1 1 6 16 9 8 5 6 9 10 8 11 12 11 10 9 6 9 9 8 11 11 11 14 6 3 1 0 3 8 9 10 13 13 14 12 11 10 10 10 10 10 11 8 4
16 8 6 5 4 5 3 15 9 2 7 6 9 9 9 9 9 8 8 9 8 8 7 8 9 10 11 10 9 13 11 11 11 11 7 9 13 14 14 14 13 13 9 12 10 9 11 9 10
8 8 14 5 5 2 5 4 3 2 5 6 8 9 10 11 9 10 9 9 9 7 7 7 8 8 11 11 14 12 13 10 9 5 7 8 9 13 13 13 14 13 11 12 13 11 12 11 11
7 7 5 3 4 10 18 9 24 10 8 5 6 9 9 9 9 8 8 7 6 6 6 6 7 9 7 7 11 13 13 12 8 7 5 7 5 6 11 13 13 13 13 14 12 13 14 13 12
9 11 3 7 10 15 10 8 24 1 3 7 6 9 11 7 8 8 8 7 5 7 6 4 4 5 5 6 7 11 12 11 10 9 5 7 5 5 9 13 13 12 14 14 13 12 13 12 13
20 16 8 10 7 9 8 13 13 8 13 20 16 19 7 7 4 5 2 4 5 6 7 7 8 8 8 7 5 6 7 6 6 7 7 6 7 8 9 11 13 15 14 14 13 11 11 12 12
12 17 8 6 2 3 6 8 9 8 7 9 11 6 8 4 7 7 6 5 5 6 7 7 7 7 8 8 7 6 4 6 7 7 6 7 9 8 9 11 12 14 14 14 14 11 14 13 13
14 10 8 7 8 8 4 5 10 2 7 6 7 6 6 5 6 6 6 5 4 5 5 6 7 7 6 7 6 6 6 6 5 6 8 10 11 10 10 10 12 13 14 14 14 14 14 14 13
6 10 7 4 5 7 3 9 9 14 7 7 8 8 9 8 6 6 6 5 5 5 7 7 8 8 8 8 8 8 9 8 6 5 6 8 9 10 12 12 13 14 14 14 14 16 15 16 15
22 20 17 8 10 6 1 10 3 7 7 8 9 8 6 7 6 6 6 5 6 6 6 6 6 7 7 5 6 8 9 9 9 8 7 8 10 10 11 11 13 14 15 14 16 16 15 17 18
Wind_Direction
330 323 54 42 57 66 313 275 293 145 73 291 96 152 170 86 165 204 315 173 139 133 155 161 143 140 140 133 128 132 129 125 125 129 109 106 107 109 105 115 105 109 111 111 107 97 87 71 112
324 334 42 75 82 64 277 267 233 226 160 156 78 65 46 29 25 62 101 192 150 140 140 135 150 145 143 136 138 138 136 129 124 132 120 113 109 108 112 119 118 115 117 118 112 104 80 76 99
349 30 70 81 100 148 200 220 206 188 163 346 79 74 125 173 312 178 253 137 121 126 143 139 150 147 146 140 146 144 143 137 133 143 120 120 114 114 119 121 117 118 121 122 117 109 85 85 95
5 7 39 78 101 243 217 205 200 156 251 132 137 31 26 233 173 189 132 128 125 137 143 155 150 150 146 147 146 147 147 146 142 135 127 129 127 129 128 126 115 127 122 124 128 111 97 88 94
28 50 45 71 302 301 251 159 149 248 316 134 180 228 263 59 17 130 134 135 141 150 150 155 156 149 150 158 157 157 153 150 134 136 133 136 128 131 133 138 136 133 129 133 130 119 107 103 96
25 78 61 177 294 319 351 136 112 195 329 327 69 140 249 51 131 152 135 143 146 153 155 154 161 156 158 156 162 163 162 152 156 166 128 144 135 141 145 147 150 145 141 137 137 133 126 117 98
95 76 181 167 284 341 357 166 169 206 150 256 140 129 274 283 174 144 135 130 142 146 147 161 161 177 172 167 154 160 179 170 175 165 137 148 149 144 149 150 156 156 157 152 152 146 144 135 117
99 87 137 242 190 192 319 318 122 153 227 91 137 260 311 224 144 115 110 123 143 160 160 164 178 167 183 180 173 160 165 184 167 114 126 142 141 145 141 156 165 163 165 167 166 163 160 148 117
124 58 193 220 168 170 323 124 347 272 118 56 312 241 333 119 116 111 110 130 152 178 192 177 177 188 174 175 203 180 163 165 152 135 89 81 94 133 148 163 171 169 173 181 184 192 188 172 74
94 128 216 217 299 325 314 105 215 117 127 263 293 223 43 133 154 159 175 191 200 202 197 193 193 187 178 183 168 183 198 182 158 160 144 117 122 146 122 179 178 178 182 189 204 211 213 197 212
164 192 200 246 227 347 346 350 312 137 198 220 206 275 133 165 187 189 204 195 205 206 197 196 191 192 183 185 172 172 168 179 199 175 170 166 159 166 188 209 200 267 208 233 259 271 244 246 237
153 231 186 217 169 360 315 315 325 204 224 128 243 202 164 190 208 206 214 214 199 192 211 197 198 191 193 191 190 178 178 183 190 208 186 168 176 190 195 196 202 205 212 231 237 247 261 265 259
176 214 213 267 303 259 316 256 252 244 254 44 99 165 199 209 227 243 237 232 223 217 219 206 190 199 204 204 209 195 200 188 189 194 198 191 186 192 184 206 198 206 198 204 226 241 252 259 257
214 200 233 276 245 250 225 250 174 261 235 167 170 215 217 214 225 239 237 231 223 223 220 206 204 204 197 211 212 214 202 201 188 190 197 193 193 205 207 204 207 208 199 213 213 213 228 250 258
148 245 308 232 239 249 159 288 229 209 193 201 230 238 234 237 213 232 237 236 218 220 216 203 206 202 201 211 219 220 217 209 199 201 198 198 199 201 196 209 219 221 208 216 222 238 237 253 255
192 113 144 256 185 237 124 257 179 217 219 246 234 240 247 253 237 248 245 234 223 225 210 209 204 204 210 213 209 216 219 213 216 207 202 199 199 202 208 215 217 209 204 207 209 214 232 239 238
348 207 199 287 201 168 185 270 235 221 202 243 264 259 236 264 260 251 248 234 230 223 225 213 201 209 207 214 211 209 206 209 214 212 211 203 201 198 207 216 223 204 205 200 211 228 215 230 242
183 203 240 210 214 222 214 256 260 246 209 250 264 280 274 243 250 252 250 244 237 227 225 226 209 216 211 207 204 208 211 216 214 213 214 214 208 202 206 218 216 194 208 219 205 217 205 217 234
155 182 197 232 236 196 237 247 267 260 235 256 254 252 259 263 261 249 241 247 243 236 221 219 213 219 193 194 199 215 221 218 217 216 212 206 210 206 211 223 216 195 213 218 207 209 225 240 187
183 207 212 281 277 189 319 272 253 257 237 215 231 229 242 251 270 272 250 236 222 233 225 219 219 212 202 206 217 214 202 224 222 216 216 210 207 207 212 217 216 208 220 221 206 203 206 227 174
219 215 164 146 10 316 356 289 241 245 246 195 224 223 225 224 247 261 268 258 238 235 233 225 225 224 215 214 197 183 144 252 200 223 224 215 209 208 211 215 218 213 212 227 218 208 212 228 193
221 173 147 175 95 245 121 275 239 181 243 233 230 241 245 245 243 250 264 276 264 252 252 241 235 222 218 205 206 208 214 222 226 230 216 213 203 213 214 217 214 219 214 224 222 208 216 216 226
213 143 199 162 163 33 234 287 256 48 286 271 269 244 239 234 232 248 250 257 273 286 284 267 256 236 225 204 205 210 221 229 236 218 220 213 208 210 213 218 222 224 217 224 223 213 205 213 226
137 78 75 126 153 239 233 193 276 241 222 214 228 246 245 255 259 259 269 282 298 303 295 282 264 255 237 210 214 218 223 229 234 227 217 228 208 204 214 217 222 227 228 229 221 219 212 214 217
161 143 157 214 207 235 165 172 244 172 232 175 226 268 270 256 262 279 308 323 336 11 6 356 5 331 297 230 219 222 229 233 235 238 227 234 224 213 217 217 221 226 229 227 228 226 226 219 223
195 184 171 197 199 233 145 219 243 216 235 256 243 251 269 271 282 280 309 65 43 22 16 27 33 31 18 5 285 237 225 235 234 235 235 234 229 231 224 218 221 225 227 229 224 224 224 222 226
183 210 179 104 51 69 212 289 297 241 228 249 243 275 290 317 105 109 87 61 34 36 30 28 31 28 25 14 8 4 301 250 250 251 247 246 247 245 231 221 223 222 225 224 224 227 226 220 224
182 157 188 203 195 223 238 259 232 204 244 249 215 163 137 127 111 92 73 62 44 35 21 32 34 38 10 6 3 351 342 337 296 266 256 253 253 248 242 230 227 226 226 225 222 230 229 228 225
157 189 209 168 196 202 224 246 200 232 210 195 156 168 158 148 125 115 99 78 75 57 35 26 20 19 28 12 357 353 346 340 330 316 303 292 278 261 252 241 235 231 229 225 226 228 227 222 229
200 202 196 188 213 218 201 243 239 233 211 166 180 174 160 143 137 113 94 71 39 41 55 40 26 9 355 1 3 0 354 345 341 330 322 316 308 301 280 257 245 244 239 227 225 228 227 227 229